Location: Asheville, NC
(35.6000°N, 82.5500°W)
Time: 06:05:50
(UTC-04:00)

Vanguard 2 Rocket - Pass Details

Date: 13 December 2017
Orbit: 554 x 3327 km, 32.9° (Epoch: 22 July)

Event Time Altitude Azimuth Distance (km) Brightness Sun altitude
Exits shadow 04:04:12 21° 203° (SSW) 4,583 10.2 -41.2°
Drops below altitude 10° 04:09:59 10° 180° (S) 4,970 10.6 -40.0°
Sets 04:14:21 0° 167° (SSE) 5,554 11.1 -39.1°
